<?xml version="1.0"?>
<gpx xmlns="http://www.topografix.com/GPX/1/1" xmlns:xsi="http://www.w3.org/2001/XMLSchema-instance" version="1.1" creator="GPX RubyGem 1.0.0 -- http://dougfales.github.io/gpx/" xsi:schemaLocation="http://www.topografix.com/GPX/1/1 http://www.topografix.com/GPX/1/1/gpx.xsd">
  <metadata>
    <name/>
    <time>2026-05-09T07:36:22+00:00</time>
    <bound minlat="90.0" minlon="180.0" maxlat="-90.0" maxlon="-180.0"/>
  </metadata>
  <trk>
    <name/>
    <trkseg>
      <trkpt lat="51.413113" lon="10.556079">
        <time>1970-01-01T00:00:00+00:00</time>
        <ele>246.0</ele>
      </trkpt>
      <trkpt lat="51.413107" lon="10.556158">
        <time>1970-01-01T00:00:00+00:00</time>
        <ele>247.0</ele>
      </trkpt>
      <trkpt lat="51.413196" lon="10.55617">
        <time>1970-01-01T00:00:00+00:00</time>
        <ele>247.0</ele>
      </trkpt>
      <trkpt lat="51.413272" lon="10.556181">
        <time>1970-01-01T00:00:00+00:00</time>
        <ele>247.0</ele>
      </trkpt>
      <trkpt lat="51.412958" lon="10.560181">
        <time>1970-01-01T00:00:00+00:00</time>
        <ele>244.0</ele>
      </trkpt>
      <trkpt lat="51.412942" lon="10.560412">
        <time>1970-01-01T00:00:00+00:00</time>
        <ele>244.0</ele>
      </trkpt>
      <trkpt lat="51.412765" lon="10.562626">
        <time>1970-01-01T00:00:00+00:00</time>
        <ele>244.0</ele>
      </trkpt>
      <trkpt lat="51.412712" lon="10.563216">
        <time>1970-01-01T00:00:00+00:00</time>
        <ele>244.0</ele>
      </trkpt>
      <trkpt lat="51.41252" lon="10.565674">
        <time>1970-01-01T00:00:00+00:00</time>
        <ele>245.0</ele>
      </trkpt>
      <trkpt lat="51.412333" lon="10.568035">
        <time>1970-01-01T00:00:00+00:00</time>
        <ele>248.0</ele>
      </trkpt>
      <trkpt lat="51.412313" lon="10.568605">
        <time>1970-01-01T00:00:00+00:00</time>
        <ele>248.0</ele>
      </trkpt>
      <trkpt lat="51.412336" lon="10.568981">
        <time>1970-01-01T00:00:00+00:00</time>
        <ele>248.0</ele>
      </trkpt>
      <trkpt lat="51.412383" lon="10.569377">
        <time>1970-01-01T00:00:00+00:00</time>
        <ele>247.0</ele>
      </trkpt>
      <trkpt lat="51.412551" lon="10.5705">
        <time>1970-01-01T00:00:00+00:00</time>
        <ele>247.0</ele>
      </trkpt>
      <trkpt lat="51.412639" lon="10.570327">
        <time>1970-01-01T00:00:00+00:00</time>
        <ele>246.0</ele>
      </trkpt>
      <trkpt lat="51.412743" lon="10.570071">
        <time>1970-01-01T00:00:00+00:00</time>
        <ele>245.0</ele>
      </trkpt>
      <trkpt lat="51.412845" lon="10.569902">
        <time>1970-01-01T00:00:00+00:00</time>
        <ele>245.0</ele>
      </trkpt>
      <trkpt lat="51.412957" lon="10.569763">
        <time>1970-01-01T00:00:00+00:00</time>
        <ele>244.0</ele>
      </trkpt>
      <trkpt lat="51.413213" lon="10.569566">
        <time>1970-01-01T00:00:00+00:00</time>
        <ele>242.0</ele>
      </trkpt>
      <trkpt lat="51.414291" lon="10.568869">
        <time>1970-01-01T00:00:00+00:00</time>
        <ele>241.0</ele>
      </trkpt>
      <trkpt lat="51.414935" lon="10.56857">
        <time>1970-01-01T00:00:00+00:00</time>
        <ele>242.0</ele>
      </trkpt>
      <trkpt lat="51.415047" lon="10.568522">
        <time>1970-01-01T00:00:00+00:00</time>
        <ele>242.0</ele>
      </trkpt>
      <trkpt lat="51.415239" lon="10.568457">
        <time>1970-01-01T00:00:00+00:00</time>
        <ele>243.0</ele>
      </trkpt>
      <trkpt lat="51.415243" lon="10.568413">
        <time>1970-01-01T00:00:00+00:00</time>
        <ele>243.0</ele>
      </trkpt>
      <trkpt lat="51.415288" lon="10.568341">
        <time>1970-01-01T00:00:00+00:00</time>
        <ele>243.0</ele>
      </trkpt>
      <trkpt lat="51.41538" lon="10.56829">
        <time>1970-01-01T00:00:00+00:00</time>
        <ele>243.0</ele>
      </trkpt>
      <trkpt lat="51.41549" lon="10.568245">
        <time>1970-01-01T00:00:00+00:00</time>
        <ele>243.0</ele>
      </trkpt>
      <trkpt lat="51.415545" lon="10.568199">
        <time>1970-01-01T00:00:00+00:00</time>
        <ele>243.0</ele>
      </trkpt>
      <trkpt lat="51.415585" lon="10.568126">
        <time>1970-01-01T00:00:00+00:00</time>
        <ele>244.0</ele>
      </trkpt>
      <trkpt lat="51.415648" lon="10.567699">
        <time>1970-01-01T00:00:00+00:00</time>
        <ele>244.0</ele>
      </trkpt>
      <trkpt lat="51.415516" lon="10.567294">
        <time>1970-01-01T00:00:00+00:00</time>
        <ele>244.0</ele>
      </trkpt>
      <trkpt lat="51.415445" lon="10.567018">
        <time>1970-01-01T00:00:00+00:00</time>
        <ele>244.0</ele>
      </trkpt>
      <trkpt lat="51.415349" lon="10.566505">
        <time>1970-01-01T00:00:00+00:00</time>
        <ele>244.0</ele>
      </trkpt>
      <trkpt lat="51.415331" lon="10.566289">
        <time>1970-01-01T00:00:00+00:00</time>
        <ele>244.0</ele>
      </trkpt>
      <trkpt lat="51.415856" lon="10.565929">
        <time>1970-01-01T00:00:00+00:00</time>
        <ele>248.0</ele>
      </trkpt>
      <trkpt lat="51.416201" lon="10.565753">
        <time>1970-01-01T00:00:00+00:00</time>
        <ele>251.0</ele>
      </trkpt>
      <trkpt lat="51.416266" lon="10.56596">
        <time>1970-01-01T00:00:00+00:00</time>
        <ele>251.0</ele>
      </trkpt>
      <trkpt lat="51.416678" lon="10.565554">
        <time>1970-01-01T00:00:00+00:00</time>
        <ele>255.0</ele>
      </trkpt>
      <trkpt lat="51.416771" lon="10.565511">
        <time>1970-01-01T00:00:00+00:00</time>
        <ele>256.0</ele>
      </trkpt>
      <trkpt lat="51.416771" lon="10.565511">
        <time>1970-01-01T00:00:00+00:00</time>
        <ele>256.0</ele>
      </trkpt>
      <trkpt lat="51.416678" lon="10.565554">
        <time>1970-01-01T00:00:00+00:00</time>
        <ele>255.0</ele>
      </trkpt>
      <trkpt lat="51.416266" lon="10.56596">
        <time>1970-01-01T00:00:00+00:00</time>
        <ele>251.0</ele>
      </trkpt>
      <trkpt lat="51.416201" lon="10.565753">
        <time>1970-01-01T00:00:00+00:00</time>
        <ele>251.0</ele>
      </trkpt>
      <trkpt lat="51.415856" lon="10.565929">
        <time>1970-01-01T00:00:00+00:00</time>
        <ele>248.0</ele>
      </trkpt>
      <trkpt lat="51.415331" lon="10.566289">
        <time>1970-01-01T00:00:00+00:00</time>
        <ele>244.0</ele>
      </trkpt>
      <trkpt lat="51.415349" lon="10.566505">
        <time>1970-01-01T00:00:00+00:00</time>
        <ele>244.0</ele>
      </trkpt>
      <trkpt lat="51.415445" lon="10.567018">
        <time>1970-01-01T00:00:00+00:00</time>
        <ele>244.0</ele>
      </trkpt>
      <trkpt lat="51.415516" lon="10.567294">
        <time>1970-01-01T00:00:00+00:00</time>
        <ele>244.0</ele>
      </trkpt>
      <trkpt lat="51.415648" lon="10.567699">
        <time>1970-01-01T00:00:00+00:00</time>
        <ele>244.0</ele>
      </trkpt>
      <trkpt lat="51.415585" lon="10.568126">
        <time>1970-01-01T00:00:00+00:00</time>
        <ele>244.0</ele>
      </trkpt>
      <trkpt lat="51.415545" lon="10.568199">
        <time>1970-01-01T00:00:00+00:00</time>
        <ele>243.0</ele>
      </trkpt>
      <trkpt lat="51.41549" lon="10.568245">
        <time>1970-01-01T00:00:00+00:00</time>
        <ele>243.0</ele>
      </trkpt>
      <trkpt lat="51.41538" lon="10.56829">
        <time>1970-01-01T00:00:00+00:00</time>
        <ele>243.0</ele>
      </trkpt>
      <trkpt lat="51.415288" lon="10.568341">
        <time>1970-01-01T00:00:00+00:00</time>
        <ele>243.0</ele>
      </trkpt>
      <trkpt lat="51.415243" lon="10.568413">
        <time>1970-01-01T00:00:00+00:00</time>
        <ele>243.0</ele>
      </trkpt>
      <trkpt lat="51.415239" lon="10.568457">
        <time>1970-01-01T00:00:00+00:00</time>
        <ele>243.0</ele>
      </trkpt>
      <trkpt lat="51.415047" lon="10.568522">
        <time>1970-01-01T00:00:00+00:00</time>
        <ele>242.0</ele>
      </trkpt>
      <trkpt lat="51.414935" lon="10.56857">
        <time>1970-01-01T00:00:00+00:00</time>
        <ele>242.0</ele>
      </trkpt>
      <trkpt lat="51.414291" lon="10.568869">
        <time>1970-01-01T00:00:00+00:00</time>
        <ele>241.0</ele>
      </trkpt>
      <trkpt lat="51.413213" lon="10.569566">
        <time>1970-01-01T00:00:00+00:00</time>
        <ele>242.0</ele>
      </trkpt>
      <trkpt lat="51.412957" lon="10.569763">
        <time>1970-01-01T00:00:00+00:00</time>
        <ele>244.0</ele>
      </trkpt>
      <trkpt lat="51.412845" lon="10.569902">
        <time>1970-01-01T00:00:00+00:00</time>
        <ele>245.0</ele>
      </trkpt>
      <trkpt lat="51.412743" lon="10.570071">
        <time>1970-01-01T00:00:00+00:00</time>
        <ele>245.0</ele>
      </trkpt>
      <trkpt lat="51.412639" lon="10.570327">
        <time>1970-01-01T00:00:00+00:00</time>
        <ele>246.0</ele>
      </trkpt>
      <trkpt lat="51.412551" lon="10.5705">
        <time>1970-01-01T00:00:00+00:00</time>
        <ele>247.0</ele>
      </trkpt>
      <trkpt lat="51.412383" lon="10.569377">
        <time>1970-01-01T00:00:00+00:00</time>
        <ele>247.0</ele>
      </trkpt>
      <trkpt lat="51.412336" lon="10.568981">
        <time>1970-01-01T00:00:00+00:00</time>
        <ele>248.0</ele>
      </trkpt>
      <trkpt lat="51.412313" lon="10.568605">
        <time>1970-01-01T00:00:00+00:00</time>
        <ele>248.0</ele>
      </trkpt>
      <trkpt lat="51.412333" lon="10.568035">
        <time>1970-01-01T00:00:00+00:00</time>
        <ele>248.0</ele>
      </trkpt>
      <trkpt lat="51.41252" lon="10.565674">
        <time>1970-01-01T00:00:00+00:00</time>
        <ele>245.0</ele>
      </trkpt>
      <trkpt lat="51.412712" lon="10.563216">
        <time>1970-01-01T00:00:00+00:00</time>
        <ele>244.0</ele>
      </trkpt>
      <trkpt lat="51.412765" lon="10.562626">
        <time>1970-01-01T00:00:00+00:00</time>
        <ele>244.0</ele>
      </trkpt>
      <trkpt lat="51.412942" lon="10.560412">
        <time>1970-01-01T00:00:00+00:00</time>
        <ele>244.0</ele>
      </trkpt>
      <trkpt lat="51.412958" lon="10.560181">
        <time>1970-01-01T00:00:00+00:00</time>
        <ele>244.0</ele>
      </trkpt>
      <trkpt lat="51.413272" lon="10.556181">
        <time>1970-01-01T00:00:00+00:00</time>
        <ele>247.0</ele>
      </trkpt>
      <trkpt lat="51.413196" lon="10.55617">
        <time>1970-01-01T00:00:00+00:00</time>
        <ele>247.0</ele>
      </trkpt>
      <trkpt lat="51.413107" lon="10.556158">
        <time>1970-01-01T00:00:00+00:00</time>
        <ele>247.0</ele>
      </trkpt>
      <trkpt lat="51.413113" lon="10.556079">
        <time>1970-01-01T00:00:00+00:00</time>
        <ele>246.0</ele>
      </trkpt>
    </trkseg>
  </trk>
</gpx>
